Date,TemperatureHighF,TemperatureAvgF,TemperatureLowF,DewpointHighF,DewpointAvgF,DewpointLowF,HumidityHigh,HumidityAvg,HumidityLow,PressureMaxIn,PressureMinIn,WindSpeedMaxMPH,WindSpeedAvgMPH,GustSpeedMaxMPH,PrecipitationSumIn
2013-2-1,27.9,21.3,14.7,11.7,7.6,2.3,64,55,45,30.01,29.51,14,4,0,0.00
2013-2-2,26.6,18.6,9.9,11.6,5.8,0.9,70,57,45,30.17,29.96,8,1,0,0.03
2013-2-3,26.5,21.4,14.5,16.0,12.7,8.8,78,69,55,29.99,29.66,8,0,0,0.00
2013-2-4,26.0,18.3,12.2,13.9,6.1,0.2,77,60,41,29.84,29.64,13,2,0,0.00
2013-2-5,22.6,15.5,6.8,11.3,4.7,-1.0,73,62,51,29.96,29.83,5,0,0,0.00
2013-2-6,32.9,23.8,14.6,20.6,13.5,-1.5,82,65,46,30.24,29.87,8,1,0,0.00
2013-2-7,23.3,15.5,7.7,5.3,-1.7,-6.3,56,46,36,30.47,30.23,8,1,0,0.00
2013-2-8,20.3,16.2,12.2,13.6,9.8,0.2,86,77,45,30.43,29.70,15,4,0,0.00
2013-2-9,16.2,13.2,9.0,13.0,9.6,5.1,87,85,84,30.14,29.66,18,8,0,0.00
2013-2-10,27.0,15.5,7.4,22.2,11.0,3.4,85,82,78,30.35,30.14,7,1,0,0.00
2013-2-11,28.6,22.3,11.8,26.0,18.8,6.9,90,86,80,30.28,29.58,0,0,0,0.08
2013-2-12,34.7,31.8,28.6,31.5,28.8,26.0,90,88,86,29.82,29.55,9,2,0,0.01
2013-2-13,35.2,29.4,24.3,29.8,25.1,20.8,88,84,76,29.82,29.68,6,0,0,0.00
2013-2-14,34.5,28.6,24.4,26.3,22.2,19.2,85,77,62,29.94,29.67,9,0,0,0.00
2013-2-15,42.4,30.4,19.9,31.4,23.8,15.6,84,77,64,29.94,29.86,10,1,0,0.00
2013-2-16,35.2,30.1,23.4,27.1,22.2,8.3,87,73,52,29.93,29.69,9,3,0,0.01
2013-2-17,23.4,16.0,10.8,13.5,8.4,2.1,85,73,49,29.70,29.36,15,6,0,0.01
2013-2-18,23.0,15.7,8.8,15.2,4.0,0.4,82,60,43,30.07,29.60,15,5,0,0.00
2013-2-19,36.5,27.3,13.1,32.1,18.0,1.6,89,68,53,30.10,29.55,7,1,0,0.00
2013-2-20,33.4,27.3,20.8,30.6,21.7,14.6,90,79,67,29.71,29.50,10,4,0,0.00
2013-2-21,25.7,20.5,17.6,15.1,12.2,9.2,78,70,59,30.17,29.69,13,5,0,0.00
2013-2-22,35.3,26.7,17.1,29.1,20.9,12.5,86,79,64,30.35,30.17,9,2,0,0.00
2013-2-23,33.8,30.3,27.1,30.6,27.4,23.7,91,89,86,30.28,29.91,7,1,0,0.00
2013-2-24,30.4,30.1,29.7,28.1,27.8,27.4,91,91,91,29.91,29.73,0,0,0,0.01
2013-2-25,32.4,31.2,29.8,30.0,28.9,27.5,91,91,91,30.20,29.86,3,0,0,0.01
2013-2-26,35.1,32.2,30.2,33.0,30.0,28.2,92,91,91,30.31,30.14,5,0,0,0.00
2013-2-27,32.4,30.8,29.8,30.3,28.7,27.8,92,92,91,30.14,29.59,6,2,0,0.00
2013-2-28,38.3,33.6,29.8,36.2,31.5,27.8,92,92,91,29.60,29.51,5,0,0,0.00